Flag for France Weather past 2 weeks in Auxerre, France

Now
45 °F

Clear.


Feels Like: 45 °F
Forecast: 44 / 66 °F
Wind: No wind

Location: Troyes Airport

Current Time: Oct 25, 2014 at 7:39:36 AM

Latest Report: Oct 25, 2014 at 7:00 AM


Visibility: 5 mi

Pressure: 30.09 "Hg

Humidity: 100%

Dew point: 45 °F

Location of AuxerreLocation

Historic Weather in Auxerre — Graph

°F

Auxerre temperature yesterday

Maximum temperature yesterday: 59 °F (at 4:30 PM)
Minimum temperature yesterday: 43 °F (at 7:00 AM)
Average temperature yesterday: 52 °F

Past Weeks' High & Low Weather Summary

 TemperatureHumidityPressure
High77 °F (Oct 18, 3:30 PM)100% (Oct 10, 9:30 AM)30.33 "Hg (Oct 10, 9:30 AM)
Low43 °F (Oct 12, 5:00 AM)54% (Oct 18, 4:00 PM)29.65 "Hg (Oct 12, 4:30 PM)
Average57 °F85%29.98 "Hg
* Reported Oct 10 6:00 AM — Oct 25 6:30 AM, Auxerre, Weather by CustomWeather, © 2014

Note: Actual official high and low records may vary slightly from our data, if they occured in-between our weather recording intervals... More about our weather records

Advertising

Auxerre weather history for previous 24 hours

 ConditionsComfort  
Time TempWeatherWind HumidityBarometerVisibility
6:30 AM
Oct 25
43 °FClear.2 mph100%30.09 "Hg4 mi
6:00 AM45 °FFog.No wind93%30.09 "Hg0 mi
5:30 AM45 °FClear.No wind93%30.09 "Hg5 mi
5:00 AM45 °FFog.1 mph93%30.09 "Hg2 mi
4:30 AM46 °FClear.3 mph93%30.07 "Hg4 mi
4:00 AM48 °FClear.3 mph94%30.07 "Hg5 mi
3:30 AM46 °FClear.2 mph93%30.07 "Hg5 mi
3:00 AM50 °FClear.1 mph94%30.07 "Hg6 mi
2:30 AM50 °FClear.1 mph94%30.09 "HgN/A
2:00 AM50 °FClear.1 mph94%30.09 "HgN/A
1:30 AM50 °FClear.3 mph94%30.09 "HgN/A
1:00 AM50 °FClear.3 mph94%30.09 "HgN/A
12:30 AM52 °FClear.No wind88%30.09 "HgN/A
12:00 AM50 °FClear.2 mph94%30.09 "HgN/A
11:30 PM
Oct 24
52 °FClear.No wind88%30.09 "HgN/A
11:00 PM52 °FClear.No wind88%30.09 "HgN/A
10:30 PM54 °FClear.2 mph82%30.09 "HgN/A
10:00 PM54 °FClear.No wind82%30.09 "HgN/A
9:30 PM54 °FClear.No wind82%30.09 "HgN/A
9:00 PM54 °FClear.2 mph82%30.09 "HgN/A
8:30 PM54 °FClear.3 mph88%30.07 "HgN/A
8:00 PM54 °FClear.2 mph82%30.07 "HgN/A
7:30 PM55 °FCool.No wind72%30.09 "HgN/A
7:00 PM55 °FClear.2 mph67%30.09 "HgN/A
6:30 PM55 °FClear.5 mph67%30.07 "HgN/A
6:00 PM57 °FClear.3 mph67%30.09 "HgN/A
5:30 PM57 °FClear.5 mph59%30.09 "HgN/A
5:00 PM57 °FClear.6 mph63%30.09 "HgN/A
4:30 PM59 °FClear.7 mph63%30.09 "HgN/A
4:00 PM57 °FClear.6 mph67%30.09 "HgN/A
3:30 PM57 °FPartly sunny.5 mph67%30.09 "HgN/A
3:00 PM57 °FMore clouds than sun.3 mph67%30.12 "HgN/A
2:30 PM57 °FOvercast.5 mph67%30.12 "HgN/A
2:00 PM57 °FPartly sunny.6 mph67%30.12 "HgN/A
1:30 PM57 °FPartly sunny.6 mph67%30.15 "HgN/A
1:00 PM57 °FPassing clouds.5 mph67%30.15 "HgN/A
12:30 PM57 °FClear.3 mph72%30.15 "HgN/A
12:00 PM55 °FClear.6 mph72%30.18 "HgN/A
11:30 AM55 °FClear.6 mph77%30.18 "HgN/A
11:00 AM55 °FClear.5 mph77%30.18 "HgN/A
10:30 AM54 °FPartly sunny.2 mph88%30.18 "HgN/A
10:00 AM50 °FPartly sunny.3 mph88%30.18 "HgN/A
9:30 AM48 °FOvercast.3 mph87%30.18 "HgN/A
9:00 AM48 °FClear.3 mph87%30.18 "HgN/A
8:30 AM46 °FClear.5 mph93%30.18 "HgN/A
8:00 AM45 °FPassing clouds.3 mph93%30.18 "HgN/A
7:30 AM45 °FMostly cloudy.5 mph93%30.18 "HgN/A
7:00 AM43 °FPassing clouds.3 mph93%30.18 "HgN/A
Weather by CustomWeather, © 2014

See weather overviewHow to use our weather pages